Theta_e
353 354 356 358 361 360 358 357 359 359 359 358 357 357 357 357 359 360 360 360 359 355 355 355 354 356 356 355 356 356 356 352
351 354 356 360 361 359 357 357 358 359 360 359 358 358 359 359 360 360 360 360 360 358 355 355 355 357 356 356 356 356 356 349
350 355 354 361 361 359 358 359 359 360 360 360 359 360 359 360 360 361 360 360 361 361 358 357 358 356 355 355 355 355 357 348
351 354 355 356 357 359 359 359 359 359 359 359 359 359 359 359 360 359 358 360 360 359 359 357 356 354 353 353 354 355 356 357
350 354 353 354 353 354 354 357 359 359 359 360 359 359 359 359 358 358 356 357 357 357 357 356 355 354 353 355 355 356 353 350
345 349 353 351 351 351 351 352 358 358 357 359 358 358 356 352 353 353 352 355 356 355 355 356 355 355 354 354 355 357 357 344
341 346 350 351 351 350 351 349 350 352 352 353 352 353 349 347 348 349 350 354 356 356 355 355 356 356 355 350 353 354 348 343
340 344 347 348 349 348 348 349 348 348 350 350 350 349 346 345 345 345 344 346 349 352 349 353 353 352 350 346 351 348 348 345
340 342 347 346 347 346 346 348 347 348 350 348 348 346 343 340 339 339 339 339 343 345 346 345 346 348 347 345 348 345 347 346
337 341 343 345 346 343 345 347 345 346 347 347 346 345 342 339 337 337 337 338 340 343 342 341 341 343 345 343 346 345 344 344
333 338 343 344 344 342 345 346 344 343 346 343 344 344 343 339 337 337 337 338 339 341 341 340 339 339 342 343 344 345 343 342
332 336 340 342 342 340 342 343 341 342 343 342 342 342 343 340 337 337 336 337 339 340 341 339 337 338 340 342 342 344 342 341
332 334 338 342 338 338 339 339 340 340 340 340 340 340 342 341 340 338 336 336 338 340 339 338 337 336 338 338 340 342 342 341
331 333 335 336 336 337 338 337 336 338 338 339 339 338 339 342 342 340 339 340 338 338 338 337 336 338 336 336 337 339 341 341
332 331 332 334 333 334 335 335 335 335 337 339 337 339 339 339 342 340 340 339 338 336 336 336 336 336 336 337 337 337 338 340
330 330 330 330 331 333 333 331 331 331 333 335 337 338 340 342 341 342 341 340 338 336 334 336 334 332 335 336 337 336 336 337
326 328 328 328 330 333 334 335 335 333 335 335 333 333 336 336 338 338 336 336 336 334 332 332 333 332 333 338 330 328 326 330
321 322 323 324 326 328 330 336 336 337 334 332 332 332 333 335 335 333 334 333 333 330 330 330 329 328 325 329 332 326 321 320
315 317 317 317 320 323 323 328 331 331 330 329 329 329 332 333 332 334 333 333 332 332 329 330 330 327 326 323 325 332 328 324
Wind_Speed
13 11 18 21 19 19 19 19 18 17 16 15 15 15 15 15 13 12 11 11 12 13 13 12 12 11 12 12 11 10 10 12
16 10 13 19 18 18 19 19 18 16 16 15 14 14 13 12 13 11 11 11 12 13 12 12 11 8 10 10 9 8 9 13
17 10 12 17 18 17 17 17 16 16 15 14 13 13 12 11 11 10 9 10 10 12 12 10 8 7 7 7 6 7 8 13
16 11 10 11 14 17 16 16 15 14 14 13 13 12 11 10 10 9 8 8 10 11 10 8 6 5 5 4 4 3 5 12
14 11 9 10 10 9 10 16 15 14 13 12 11 11 11 10 8 8 8 7 8 8 8 8 6 5 4 3 3 3 10 13
10 11 11 9 8 8 7 11 14 16 14 13 11 10 6 2 4 5 6 5 6 7 7 7 7 5 5 4 4 5 10 4
12 11 9 10 11 8 8 8 6 8 5 5 5 5 3 3 3 3 4 5 5 5 6 6 7 6 5 3 2 6 3 5
18 11 12 12 13 9 7 5 3 3 4 3 5 4 4 3 1 1 0 1 0 3 1 3 3 3 4 3 3 3 5 6
15 16 13 10 12 6 4 5 5 5 6 4 4 5 4 2 3 2 1 2 2 1 1 1 2 3 4 4 4 5 6 6
12 12 14 9 10 6 8 6 4 4 6 5 5 5 4 3 3 3 3 2 2 2 2 3 3 4 4 4 5 6 6 6
8 11 11 11 9 7 7 10 6 3 6 3 3 4 6 4 3 3 3 4 3 3 3 3 3 4 5 4 5 6 6 5
6 8 8 8 6 7 5 8 4 3 4 3 4 5 6 5 5 5 4 3 4 4 4 3 4 3 4 4 6 5 4 6
7 8 9 9 7 7 7 5 3 3 3 2 3 3 6 7 6 5 4 5 4 3 4 4 4 4 4 5 5 5 5 5
8 9 10 8 10 9 6 5 4 3 2 1 2 3 4 6 6 6 5 3 2 3 2 3 3 4 4 5 6 4 5 6
4 7 9 8 8 7 5 4 2 3 4 3 3 5 5 5 5 5 4 4 4 3 2 2 3 3 3 6 5 4 4 4
8 6 5 7 6 6 3 3 2 2 2 3 2 1 2 2 5 5 4 4 3 5 5 4 2 2 2 1 1 2 2 4
8 7 7 6 5 3 3 3 3 4 2 2 2 3 3 4 3 3 3 4 1 3 3 5 3 1 1 3 0 1 2 3
8 7 7 7 7 6 3 3 3 5 4 3 2 1 4 3 4 4 3 4 1 1 5 2 2 6 1 2 1 1 3 3
5 5 7 7 7 6 6 4 3 2 3 3 3 3 2 5 6 4 0 2 3 2 3 4 3 5 7 4 2 4 5 4
Wind_Direction
136 139 161 156 146 143 140 138 135 134 134 134 136 135 137 140 139 138 137 135 131 126 125 128 130 132 133 136 138 132 119 128
147 147 156 153 147 145 145 143 140 139 138 139 141 142 143 143 144 144 145 143 136 129 131 136 135 141 143 156 153 149 135 136
148 144 155 150 149 147 148 147 144 142 142 145 148 147 148 149 149 149 155 150 143 138 139 148 152 163 163 163 152 154 156 147
147 139 146 150 153 151 149 149 148 148 149 152 152 152 154 156 151 150 144 140 132 137 136 144 129 133 147 160 163 173 168 157
151 146 142 146 148 146 152 153 153 154 154 155 156 158 158 159 157 153 152 151 140 141 137 139 145 159 160 180 173 176 144 152
161 160 154 143 145 143 144 158 158 160 159 160 163 164 150 134 151 166 164 175 157 154 160 158 153 186 181 193 204 167 162 148
168 169 156 155 157 151 157 157 151 162 151 148 154 157 140 153 157 170 194 199 187 183 177 180 168 200 199 179 187 176 165 165
169 174 170 166 168 161 157 151 151 144 142 148 160 152 147 145 156 129 258 302 260 234 205 196 204 202 217 203 180 192 186 175
173 177 170 162 166 159 140 158 158 160 171 169 166 158 155 157 180 195 215 253 270 240 209 214 239 235 225 221 204 205 197 189
180 179 180 164 167 152 154 165 161 171 186 183 167 171 164 176 191 188 204 220 232 242 205 203 220 249 237 223 212 209 203 212
177 182 174 174 165 150 167 179 178 165 189 175 179 183 183 182 193 206 202 212 217 207 223 220 215 212 236 225 227 219 217 208
175 163 173 166 157 149 156 184 156 172 177 192 200 190 195 196 200 205 221 228 221 194 206 222 233 207 224 223 225 209 201 212
153 167 165 177 173 163 163 168 166 172 173 207 237 214 206 207 205 210 217 231 220 201 189 206 212 221 220 204 224 208 202 206
159 157 171 172 184 179 160 152 158 170 144 243 239 247 239 223 218 218 229 253 176 221 221 241 223 201 210 212 215 205 198 201
133 161 166 174 169 158 136 129 168 154 213 231 230 219 223 228 218 210 235 225 171 153 132 182 209 221 289 245 190 175 202 221
62 93 143 160 168 143 128 140 145 182 217 253 201 148 188 219 226 224 223 207 176 148 143 153 133 191 287 355 343 155 189 200
59 61 68 81 84 138 164 168 171 171 179 132 95 66 59 84 78 62 320 301 216 119 121 118 139 142 352 48 36 59 292 245
61 56 58 63 64 46 14 126 95 93 97 107 115 35 14 28 67 67 109 177 145 226 133 251 152 131 96 16 10 17 318 280
67 64 69 57 60 49 35 58 58 88 117 71 67 54 342 355 22 7 3 244 230 193 170 204 202 175 134 230 255 196 181 180